ICEYE-X37

导读

ICEYE-X37是ICEYE公司的第三代合成孔径雷达卫星,于2024年3月4日由美国发射升空,是该公司星座扩容计划中的重要节点。作为全球SAR卫星技术领军者,该卫星延续了ICEYE的技术优势,可不受天气、光照限制实现高分辨率对地成像,具备50厘米级原生分辨率与快速变化检测能力。它的入轨进一步提升了ICEYE星座的重访频率,能为灾害响应、环境监测、安全监控等领域提供更及时精准的地球观测数据,服务全球多行业客户的决策需求。

Basic Information
目录编号:
59102
目录名称:
ICEYE-X37
国际标识:
2024-043E
轨道中心:
EARTH
卫星名称:
ICEYE-X37
卫星全名:
--
卫星状态:
在轨 (已飞行831 天)
发射日期:
2024-03-04 UTC
国别 :
美国 (US)
星等 :
--
Orbit Information
数据来源 国际轨道数据 AOE轨道数据
星历时间 2026-06-13T04:41:36+0800
6小时前
查看轨道信息
2026-06-12T05:00:00+0800
1天前
查看轨道信息
半长轴 6926.301km 6926.295km
偏心率 0.0015617 0.0015245
轨道倾角 97.830° 97.826°
近地点辐角 28.547° 32.638°
升交点赤经 300.795° 299.788°
平近点角 331.661° 18.338°
近地点 537.347km 537.598km
远地点 558.981km 558.718km
周期 95.612分钟 95.612分钟
每日圈数 15.060896 15.060914
Detailed Information
使用方式:
暂无
2D Orbit Map
3D Orbit Map
Orbit Altitude Analysis Chart
Orbit Inclination Analysis Chart
Orbit Comprehensive Analysis Chart
View Comprehensive Chart